This is the latest recevied weather packets stored in our database for station/object EFTU. If no packets are shown the sender has not sent any weather packets the latest 10 day(s).
| Time | Temp. | Humidity | Pressure | Rain* | Wind** | Luminosity | Snow |
|---|---|---|---|---|---|---|---|
| 1777502815 | 3.89° C | 79% | 1024.3 hPa | - | - | - | - |
| 1777501615 | 3.89° C | 78% | 1024.3 hPa | - | - | - | - |
| 1777500415 | 3.89° C | 73% | 1024.5 hPa | - | - | - | - |
| 1777499215 | 3.89° C | 72% | 1024.6 hPa | - | - | - | - |
| 1777498015 | 3.33° C | 72% | 1024.6 hPa | - | - | - | - |
| 1777496815 | 3.89° C | 70% | 1024.6 hPa | - | - | - | - |
| 1777495615 | 3.33° C | 69% | 1024.7 hPa | - | - | - | - |
| 1777494414 | 3.89° C | 66% | 1024.8 hPa | - | - | - | - |
| 1777493215 | 3.89° C | 64% | 1024.8 hPa | - | - | - | - |
| 1777492014 | 4.44° C | 61% | 1024.8 hPa | - | - | - | - |
| 1777490815 | 3.89° C | 58% | 1024.8 hPa | - | - | - | - |
| 1777489615 | 3.89° C | 55% | 1024.7 hPa | - | - | - | - |
| 1777488414 | 4.44° C | 51% | 1024.8 hPa | - | - | - | - |
| 1777487214 | 5° C | 48% | 1024.8 hPa | - | - | - | - |
| 1777486014 | 5.56° C | 45% | 1024.8 hPa | - | - | - | - |
| 1777484814 | 5.56° C | 44% | 1024.8 hPa | - | - | - | - |
| 1777483614 | 6.11° C | 42% | 1024.8 hPa | - | - | - | - |
| 1777482414 | 6.67° C | 39% | 1024.9 hPa | - | - | - | - |
| 1777481213 | 7.22° C | 33% | 1024.9 hPa | - | - | - | - |
| 1777480014 | 7.22° C | 33% | 1025 hPa | - | - | - | - |
| 1777478813 | 7.78° C | 32% | 1025 hPa | - | - | - | - |
| 1777477613 | 7.78° C | 33% | 1025.1 hPa | - | - | - | - |
| 1777476413 | 8.33° C | 32% | 1025.2 hPa | - | - | - | - |
| 1777475213 | 7.78° C | 31% | 1025.5 hPa | - | - | - | - |
| 1777474013 | 7.78° C | 31% | 1025.5 hPa | - | - | - | - |
* Rain since midnight (hover to see other rain measurements)
** Current wind speed in m/s (hover to see current wind gust speed)